Location: *
(48.7358°N, 0.3111°E)
Time: 20:59:20
(UTC+00:00)

Cosmos 1850 Rocket - Pass Details

Date: 22 October 2019
Orbit: 754 x 785 km, 74.0° (Epoch: 12 November)

Event Time Altitude Azimuth Distance (km) Brightness Sun altitude
Rises 05:29:51 0° 209° (SSW) 3,199 7.0 -10.4°
Reaches altitude 10° 05:32:13 10° 212° (SSW) 2,277 6.2 -10.0°
Maximum altitude 05:37:21 67° 295° (WNW) 821 4.0 -9.2°
Drops below altitude 10° 05:42:32 10° 19° (NNE) 2,293 6.6 -8.3°
Sets 05:44:56 0° 22° (NNE) 3,225 7.4 -8.0°
